Weather History for Cleveland Burke, OH

Change the Weather History Date:

Friday, December 31, 2004

  Actual Average Record
Temperature  
Mean Temperature 55 °F -  
Max Temperature 57 °F 35 °F 57 °F (2004)
Min Temperature 53 °F 24 °F 17 °F (1998)
Degree Days  
Heating Degree Days 10    
Growing Degree Days 5 (Base 50)    
Moisture  
Dew Point 47 °F    
Average Humidity 71    
Maximum Humidity 77    
Minimum Humidity 60    
Precipitation  
Precipitation 0.19 in - - ()
Sea Level Pressure  
Sea Level Pressure 30.07 in    
Wind  
Wind Speed 20 mph (SSW)    
Max Wind Speed 24 mph    
Max Gust Speed 38 mph    
Visibility 8 miles    
Events Rain    
Averages and records for this station are not official NWS values.
T = Trace of Precipitation, MM = Missing Value Source: NWS Daily Summary

Daily Weather History Graph

Daily Weather History Graph

Search for Another Location

Airport:

Trip Planner

Search our weather history database for the weather conditions in past years. The results will help you decide how hot, cold, wet, or windy it might be!

Date:

Astronomy

Dec. 31, 2004 Rise Set
Actual Time 7:53 AM EST 5:06 PM EST
Civil Twilight 7:21 AM EST 5:38 PM EST
Nautical Twilight 6:47 AM EST 6:13 PM EST
Astronomical Twilight 6:13 AM EST 6:46 PM EST
Moon 9:58 PM EST (12/31) 11:07 AM EST (12/31)
Length of Visible Light 10h 16m
Length of Day
9h 13m
Waning Gibbous, 78% of the Moon is Illuminated
Dec 31
Waning Gibbous
Jan 3
Last Quarter
Jan 10
New
Jan 17
First Quarter
Jan 25
Full

Hourly Weather History & Observations

Time (EST) Temp. Dew Point Humidity Pressure Visibility Wind Dir Wind Speed Gust Speed Precip Events Conditions
12:53 AM 55.0 °F 44.1 °F 67% 30.07 in 10.0 mi South 18.4 mph 36.8 mph 0.00 in   Mostly Cloudy
1:53 AM 55.9 °F 44.1 °F 64% 30.05 in 10.0 mi South 20.7 mph 38.0 mph 0.00 in Rain Light Rain
2:53 AM 55.0 °F 43.0 °F 64% 30.05 in 10.0 mi South 21.9 mph 35.7 mph 0.00 in   Mostly Cloudy
3:53 AM 55.0 °F 43.0 °F 64% 30.03 in 10.0 mi South 19.6 mph 28.8 mph 0.00 in Rain Light Rain
4:53 AM 55.9 °F 42.1 °F 60% 30.02 in 10.0 mi South 21.9 mph 27.6 mph 0.00 in   Overcast
5:53 AM 53.1 °F 44.1 °F 71% 30.03 in 9.0 mi South 17.3 mph 25.3 mph 0.02 in Rain Light Rain
6:53 AM 53.1 °F 44.1 °F 71% 30.03 in 5.0 mi South 23.0 mph 29.9 mph 0.07 in Rain Rain
7:53 AM 53.1 °F 45.0 °F 74% 30.03 in 9.0 mi South 24.2 mph 29.9 mph 0.03 in   Overcast
8:53 AM 53.1 °F 46.0 °F 77% 30.04 in 5.0 mi South 23.0 mph 31.1 mph 0.03 in Rain Light Rain
9:53 AM 53.1 °F 46.0 °F 77% 30.05 in 7.0 mi South 23.0 mph 33.4 mph 0.04 in   Overcast
10:53 AM 55.0 °F 46.0 °F 72% 30.05 in 6.0 mi South 15.0 mph 26.5 mph N/A   Haze
11:53 AM 55.9 °F 46.9 °F 72% 30.04 in 7.0 mi South 20.7 mph 25.3 mph N/A   Overcast
12:53 PM 55.9 °F 46.9 °F 72% 30.03 in 6.0 mi SSW 18.4 mph - N/A   Haze
1:53 PM 57.0 °F 48.0 °F 72% 30.01 in 6.0 mi South 16.1 mph 21.9 mph N/A   Haze
2:53 PM 57.9 °F 48.9 °F 72% 30.03 in 7.0 mi SSW 17.3 mph 29.9 mph N/A   Overcast
3:53 PM 57.9 °F 48.9 °F 72% 30.03 in 7.0 mi South 23.0 mph 27.6 mph N/A   Mostly Cloudy
4:15 PM 57.2 °F 48.2 °F 72% 30.03 in 7.0 mi SSW 20.7 mph 27.6 mph N/A   Scattered Clouds
4:36 PM 57.2 °F 48.2 °F 72% 30.04 in 7.0 mi SSW 17.3 mph 29.9 mph N/A   Mostly Cloudy
4:53 PM 57.9 °F 48.0 °F 70% 30.05 in 7.0 mi SSW 17.3 mph 29.9 mph N/A   Mostly Cloudy
5:13 PM 57.2 °F 48.2 °F 72% 30.06 in 8.0 mi SSW 18.4 mph 26.5 mph N/A   Scattered Clouds
5:53 PM 57.9 °F 48.0 °F 70% 30.08 in 9.0 mi SSW 20.7 mph 27.6 mph N/A   Overcast
6:33 PM 57.2 °F 48.2 °F 72% 30.09 in 8.0 mi SSW 17.3 mph 27.6 mph N/A   Scattered Clouds
6:53 PM 57.0 °F 48.0 °F 72% 30.10 in 8.0 mi SSW 20.7 mph 28.8 mph N/A   Mostly Cloudy
7:00 PM 57.2 °F 48.2 °F 72% 30.10 in 8.0 mi SSW 16.1 mph 25.3 mph N/A   Scattered Clouds
7:26 PM 57.2 °F 48.2 °F 72% 30.12 in 9.0 mi SW 20.7 mph 29.9 mph N/A   Mostly Cloudy
7:53 PM 57.0 °F 48.0 °F 72% 30.13 in 8.0 mi SSW 13.8 mph 26.5 mph N/A   Scattered Clouds
8:53 PM 55.9 °F 48.0 °F 75% 30.14 in 8.0 mi SSW 17.3 mph 25.3 mph N/A   Partly Cloudy
9:53 PM 55.9 °F 48.0 °F 75% 30.15 in 8.0 mi SSW 18.4 mph 31.1 mph N/A   Partly Cloudy
10:37 PM 57.2 °F 48.2 °F 72% 30.16 in 7.0 mi SW 17.3 mph - N/A   Mostly Cloudy
10:53 PM 57.0 °F 48.9 °F 74% 30.17 in 7.0 mi SW 19.6 mph - N/A   Overcast
11:46 PM 55.4 °F 48.2 °F 77% 30.19 in 7.0 mi SW 17.3 mph 23.0 mph N/A   Scattered Clouds
11:53 PM 55.9 °F 48.0 °F 75% 30.19 in 7.0 mi SW 17.3 mph 23.0 mph N/A   Partly Cloudy